EB2EMZ-14 Weather Reports


time (UTC)temp
C
wind
direction
speed
KPH
gust
KPH
rain 1hr
cm
rain 24hr
cm
rain mn
cm
humidity
%
barometer
mb
20260502233516 10 68 0.0 0.0 0.00 0.81 0.00 91 1013.6
20260502233016 10 70 0.0 4.8 0.00 0.81 0.00 91 1013.6
20260502232516 10 112 0.0 0.0 0.00 0.81 0.00 91 1013.5
20260502232016 10 112 0.0 0.0 0.00 0.81 0.00 91 1013.7
20260502231517 11 112 0.0 0.0 0.00 0.81 0.00 91 1013.6
20260502231016 11 112 0.0 0.0 0.00 0.81 0.00 91 1013.6
20260502230516 11 112 0.0 0.0 0.00 0.81 0.00 91 1013.5
20260502230016 11 112 0.0 0.0 0.00 0.81 0.00 91 1013.6
20260502225516 11 112 0.0 0.0 0.00 0.81 0.00 91 1013.6
20260502225017 11 112 0.0 0.0 0.00 0.81 0.00 91 1013.7
20260502224517 11 112 0.0 0.0 0.00 0.81 0.00 90 1013.6
20260502224017 10 135 0.0 0.0 0.00 0.81 0.00 90 1013.5
20260502223517 10 135 0.0 0.0 0.00 0.81 0.00 90 1013.4
20260502223016 10 135 0.0 0.0 0.00 0.81 0.00 90 1013.5
20260502222516 10 135 0.0 0.0 0.00 0.81 0.00 90 1013.5
20260502222018 11 135 0.0 0.0 0.00 0.81 0.00 90 1013.5
20260502221516 11 135 0.0 0.0 0.00 0.81 0.00 90 1013.5
20260502221019 11 135 0.0 0.0 0.00 0.81 0.00 89 1013.4
20260502220516 11 135 0.0 0.0 0.00 0.81 0.00 89 1013.3
20260502220017 11 135 0.0 0.0 0.00 0.81 0.00 89 1013.4
20260502215516 11 101 0.0 0.0 0.00 0.81 0.81 89 1013.4
20260502215017 11 90 0.0 0.0 0.00 0.81 0.81 89 1013.5
20260502214516 11 100 0.0 0.0 0.00 0.81 0.81 89 1013.5
20260502214016 11 158 0.0 0.0 0.00 0.81 0.81 89 1013.5
20260502213517 11 112 0.0 0.0 0.00 0.81 0.81 89 1013.4
20260502213017 11 78 0.0 0.0 0.00 0.81 0.81 89 1013.5
20260502212516 11 112 0.0 0.0 0.00 0.81 0.81 89 1013.5
20260502212017 11 112 0.0 0.0 0.00 0.81 0.81 89 1013.4
20260502211518 12 112 0.0 0.0 0.00 0.81 0.81 89 1013.4
20260502211017 12 112 0.0 0.0 0.00 0.81 0.81 89 1013.3
20260502210516 12 112 0.0 0.0 0.00 0.81 0.81 89 1013.4
20260502210016 12 116 0.0 0.0 0.00 0.81 0.81 89 1013.4
20260502205516 12 135 0.0 0.0 0.00 0.81 0.81 89 1013.4
20260502205017 12 135 0.0 0.0 0.00 0.81 0.81 89 1013.3
20260502204516 12 135 0.0 0.0 0.00 0.81 0.81 89 1013.3
20260502204017 12 135 0.0 0.0 0.00 0.81 0.81 89 1013.2
20260502203516 12 119 0.0 0.0 0.00 0.81 0.81 89 1013.1
20260502203018 12 135 0.0 0.0 0.00 0.81 0.81 89 1013.1
20260502202516 12 135 0.0 0.0 0.00 0.81 0.81 89 1013.2
20260502202016 12 135 0.0 0.0 0.00 0.81 0.81 89 1013.2
20260502201516 12 135 0.0 0.0 0.00 0.81 0.81 88 1013.2
20260502201016 12 112 0.0 0.0 0.00 0.81 0.81 88 1013.1
20260502200516 12 112 0.0 0.0 0.00 0.81 0.81 88 1013.1
20260502200016 12 110 0.0 0.0 0.00 0.81 0.81 88 1013.2
20260502195516 12 100 0.0 0.0 0.00 0.81 0.81 88 1013.3
20260502195016 12 112 0.0 0.0 0.00 0.81 0.81 88 1013.3
20260502194517 12 112 0.0 0.0 0.00 0.81 0.81 87 1013.2
20260502194016 12 112 0.0 0.0 0.00 0.81 0.81 87 1013.1
20260502193516 12 112 0.0 0.0 0.00 0.81 0.81 87 1013.1
20260502193016 12 112 0.0 0.0 0.00 0.81 0.81 87 1013.2
20260502192516 12 112 0.0 0.0 0.00 0.81 0.81 87 1013.1
20260502192017 12 112 0.0 0.0 0.00 0.81 0.81 87 1012.9
20260502191517 12 112 0.0 0.0 0.00 0.81 0.81 87 1012.9
20260502191017 12 90 0.0 0.0 0.00 0.81 0.81 87 1012.8
20260502190516 12 90 0.0 0.0 0.00 0.81 0.81 87 1012.7
20260502190016 12 135 0.0 0.0 0.00 0.81 0.81 87 1012.8
20260502185516 12 135 0.0 0.0 0.00 0.81 0.81 86 1012.8
20260502185016 12 112 0.0 1.6 0.00 0.81 0.81 86 1012.8
20260502184517 13 90 0.0 0.0 0.05 0.81 0.81 86 1012.9
20260502184016 12 90 0.0 0.0 0.05 0.81 0.81 86 1013.1
20260502183516 13 90 0.0 0.0 0.10 0.81 0.81 86 1013.3
20260502183016 13 90 0.0 0.0 0.15 0.81 0.81 85 1013.1
20260502182516 13 90 0.0 0.0 0.20 0.81 0.81 85 1013.0
20260502182019 13 45 0.0 0.0 0.20 0.81 0.81 85 1013.2
20260502181516 13 45 0.0 0.0 0.25 0.81 0.81 85 1013.3
20260502181017 13 45 0.0 0.0 0.25 0.81 0.81 84 1013.4
20260502180517 13 45 0.0 0.0 0.25 0.81 0.81 84 1013.3
20260502170518 16 96 0.0 4.8 0.00 0.56 0.56 76 1013.0
20260502164016 16 103 1.6 9.7 0.00 0.56 0.56 77 1012.9
20260502163516 16 120 1.6 9.7 0.00 0.56 0.56 77 1012.9
20260502163016 16 135 0.0 0.0 0.00 0.56 0.56 77 1012.9
20260502162516 16 135 0.0 4.8 0.00 0.56 0.56 78 1013.0
20260502162016 16 135 0.0 9.7 0.00 0.56 0.56 78 1013.0
20260502161516 16 112 3.2 8.0 0.00 0.56 0.56 78 1013.0
20260502161016 16 100 3.2 9.7 0.00 0.56 0.56 78 1013.0
20260502160516 16 129 1.6 4.8 0.00 0.56 0.56 78 1013.0
20260502152015 16 151 0.0 1.6 0.15 0.56 0.56 80 1013.6
20260502151516 16 161 0.0 0.0 0.20 0.56 0.56 81 1013.7
20260502151016 16 0 0.0 0.0 0.20 0.56 0.56 82 1013.7
20260502150516 15 10 0.0 0.0 0.25 0.56 0.56 83 1013.7
20260502130515 19 126 3.2 9.7 0.00 0.00 0.00 67 1014.7
20260502123516 21 150 6.4 9.7 0.00 0.00 0.00 67 1014.6
20260502123016 21 150 8.0 11.3 0.00 0.00 0.00 69 1014.6
20260502122514 20 135 4.8 11.3 0.00 0.00 0.00 70 1014.5
20260502122017 20 130 4.8 11.3 0.00 0.00 0.00 70 1014.6
20260502121516 20 80 4.8 12.9 0.00 0.00 0.00 71 1014.6
20260502121016 19 118 6.4 12.9 0.00 0.00 0.00 72 1014.7
20260502120516 19 85 4.8 11.3 0.00 0.00 0.00 73 1014.8
20260502115517 18 96 8.0 14.5 0.00 0.00 0.00 73 1014.8
20260502115015 18 89 4.8 14.5 0.00 0.00 0.00 74 1014.9
20260502114517 18 112 3.2 9.7 0.00 0.00 0.00 76 1014.9
20260502114016 17 115 8.0 19.3 0.00 0.00 0.00 76 1014.8
20260502113515 17 123 3.2 11.3 0.00 0.00 0.00 77 1015.0
20260502113015 17 112 8.0 19.3 0.00 0.00 0.00 77 1015.3
20260502112515 17 93 6.4 14.5 0.00 0.00 0.00 78 1015.4
20260502112016 17 100 3.2 11.3 0.00 0.00 0.00 78 1015.5
20260502111516 17 153 8.0 12.9 0.00 0.00 0.00 77 1015.6
20260502111015 17 153 4.8 12.9 0.00 0.00 0.00 78 1015.6
20260502110515 17 88 3.2 9.7 0.00 0.00 0.00 78 1015.6
20260502110015 17 151 3.2 14.5 0.00 0.00 0.00 78 1015.7
20260502105515 17 99 3.2 14.5 0.00 0.00 0.00 78 1015.8
20260502105015 16 112 4.8 16.1 0.00 0.00 0.00 79 1016.0
20260502104515 16 178 1.6 16.1 0.00 0.00 0.00 79 1015.9
20260502104016 16 143 3.2 9.7 0.00 0.00 0.00 78 1015.8
20260502103515 16 115 3.2 9.7 0.00 0.00 0.00 77 1015.9
20260502103015 16 109 4.8 9.7 0.00 0.00 0.00 76 1015.9
20260502102515 16 126 8.0 12.9 0.00 0.00 0.00 75 1016.3
20260502102015 17 155 3.2 11.3 0.00 0.00 0.00 75 1016.7
20260502101515 17 129 1.6 11.3 0.00 0.00 0.00 74 1016.5
20260502101015 17 101 4.8 16.1 0.00 0.00 0.00 73 1016.4
20260502100515 17 100 4.8 14.5 0.00 0.00 0.00 73 1016.2
20260502091515 17 70 4.8 12.9 0.00 0.00 0.00 74 1016.3
20260502091016 17 123 6.4 16.1 0.00 0.00 0.00 73 1016.3
20260502090516 17 108 8.0 12.9 0.00 0.00 0.00 73 1016.3
20260502071516 15 52 4.8 11.3 0.00 0.00 0.00 84 1016.3
20260502071016 15 92 6.4 12.9 0.00 0.00 0.00 84 1016.4
20260502070515 14 91 3.2 11.3 0.00 0.00 0.00 84 1016.4
20260502070015 13 64 3.2 14.5 0.00 0.00 0.00 85 1016.5
20260502065514 13 97 9.7 14.5 0.00 0.00 0.00 85 1016.4
20260502065015 13 79 4.8 9.7 0.00 0.00 0.00 85 1016.3
20260502064515 13 70 8.0 16.1 0.00 0.00 0.00 85 1016.3
20260502064015 13 80 4.8 11.3 0.00 0.00 0.00 86 1016.3
20260502063515 13 73 4.8 12.9 0.00 0.00 0.00 86 1016.5
20260502063016 13 86 1.6 12.9 0.00 0.00 0.00 86 1016.3
20260502062515 13 88 8.0 12.9 0.00 0.00 0.00 87 1016.4
20260502062018 12 84 3.2 9.7 0.00 0.00 0.00 87 1016.3
20260502061518 12 95 3.2 11.3 0.00 0.00 0.00 87 1016.3
20260502061015 12 140 1.6 9.7 0.00 0.00 0.00 87 1016.5
20260502060515 12 73 3.2 12.9 0.00 0.00 0.00 87 1016.5
20260502060015 12 135 3.2 9.7 0.00 0.00 0.00 87 1016.4
20260502055518 12 85 3.2 11.3 0.00 0.00 0.00 87 1016.3
20260502055015 12 131 1.6 11.3 0.00 0.00 0.00 87 1016.1
20260502054515 12 132 3.2 11.3 0.00 0.00 0.00 87 1016.3
20260502054015 12 91 3.2 11.3 0.00 0.00 0.00 87 1016.3
20260502053515 12 78 6.4 11.3 0.00 0.00 0.00 87 1016.3
20260502053015 12 114 3.2 9.7 0.00 0.00 0.00 87 1016.2
20260502052515 12 78 9.7 20.9 0.00 0.00 0.00 87 1016.1
20260502052015 12 76 8.0 12.9 0.00 0.00 0.00 87 1016.5
20260502051515 12 84 6.4 12.9 0.00 0.00 0.00 87 1016.3
20260502051016 12 68 4.8 11.3 0.00 0.00 0.00 87 1016.1
20260502050518 12 77 4.8 11.3 0.00 0.00 0.00 87 1016.1
20260502050016 12 85 6.4 12.9 0.00 0.00 0.00 87 1016.2
20260502045515 12 171 4.8 12.9 0.00 0.00 0.00 87 1016.4
20260502045015 12 52 1.6 11.3 0.00 0.00 0.00 87 1016.4
20260502044516 12 120 1.6 8.0 0.00 0.00 0.00 86 1016.4
20260502044015 12 97 4.8 11.3 0.00 0.00 0.00 86 1016.4
20260502043515 12 92 4.8 16.1 0.00 0.00 0.00 86 1016.4
20260502043019 12 90 4.8 11.3 0.00 0.00 0.00 86 1016.3
20260502042515 12 73 4.8 14.5 0.00 0.00 0.00 86 1016.1
20260502042015 12 38 4.8 12.9 0.00 0.00 0.00 86 1016.4
20260502041514 12 64 4.8 11.3 0.00 0.00 0.00 86 1016.5
20260502041015 12 88 4.8 16.1 0.00 0.00 0.00 86 1016.4
20260502040515 12 93 3.2 14.5 0.00 0.00 0.00 86 1016.6
20260502040014 12 99 6.4 12.9 0.00 0.00 0.00 85 1016.7
20260502035514 12 27 4.8 14.5 0.00 0.00 0.00 85 1016.7
20260502035015 12 68 0.0 4.8 0.00 0.00 0.00 85 1016.6
20260502034515 12 90 1.6 8.0 0.00 0.00 0.00 84 1016.6
20260502034015 12 133 1.6 4.8 0.00 0.00 0.00 84 1016.5
20260502033515 12 18 1.6 9.7 0.00 0.00 0.00 84 1016.4
20260502033016 12 107 1.6 11.3 0.00 0.00 0.00 84 1016.5
20260502032515 12 38 4.8 19.3 0.00 0.00 0.00 84 1016.6
20260502032016 12 71 3.2 11.3 0.00 0.00 0.00 84 1016.6
20260502031515 12 183 4.8 11.3 0.00 0.00 0.00 84 1016.4
20260502031015 12 104 3.2 8.0 0.00 0.00 0.00 84 1016.4
20260502030515 12 90 0.0 9.7 0.00 0.00 0.00 84 1016.7
20260502030015 12 76 1.6 11.3 0.00 0.00 0.00 83 1016.6
20260502025514 12 86 1.6 8.0 0.00 0.00 0.00 83 1016.6
20260502025015 12 79 4.8 9.7 0.00 0.00 0.00 83 1016.6
20260502024515 13 78 3.2 8.0 0.00 0.00 0.00 83 1016.6
20260502024015 13 61 4.8 12.9 0.00 0.00 0.00 83 1016.6
20260502023515 13 28 3.2 12.9 0.00 0.00 0.00 83 1016.7
20260502023015 13 77 3.2 11.3 0.00 0.00 0.00 82 1016.6
20260502022515 13 92 8.0 12.9 0.00 0.00 0.00 82 1016.6
20260502022017 13 110 4.8 14.5 0.00 0.00 0.00 82 1016.6
20260502021514 13 81 14.5 24.1 0.00 0.00 0.00 82 1016.6
20260502021014 13 95 4.8 14.5 0.00 0.00 0.00 82 1016.7
20260502020515 13 93 8.0 19.3 0.00 0.00 0.00 82 1016.7
20260502020014 13 99 3.2 9.7 0.00 0.00 0.00 82 1016.8
20260502015515 13 99 3.2 19.3 0.00 0.00 0.00 81 1016.9
20260502015015 13 82 8.0 19.3 0.00 0.00 0.00 81 1017.0
20260502014516 13 71 8.0 16.1 0.00 0.00 0.00 81 1016.9
20260502014014 13 76 4.8 11.3 0.00 0.00 0.00 81 1016.9
20260502013515 13 72 1.6 19.3 0.00 0.00 0.00 81 1017.0
20260502013015 13 74 4.8 14.5 0.00 0.00 0.00 81 1017.1
20260502012515 13 100 4.8 14.5 0.00 0.00 0.00 81 1016.9
20260502012014 13 94 4.8 14.5 0.00 0.00 0.00 81 1017.0
20260502011515 13 131 1.6 12.9 0.00 0.00 0.00 81 1017.1
20260502011015 13 125 3.2 16.1 0.00 0.00 0.00 81 1017.0
20260502010517 13 119 1.6 8.0 0.00 0.00 0.00 81 1017.1
20260502010015 13 111 1.6 9.7 0.00 0.00 0.00 81 1017.2
20260502005515 13 112 4.8 12.9 0.00 0.00 0.00 81 1017.1
20260502005014 13 111 6.4 11.3 0.00 0.00 0.00 81 1017.0
20260502004514 13 85 4.8 16.1 0.00 0.00 0.00 80 1017.0
20260502004015 13 138 8.0 19.3 0.00 0.00 0.00 80 1017.1
20260502003514 13 112 4.8 9.7 0.00 0.00 0.00 80 1017.0
20260502003015 13 106 3.2 9.7 0.00 0.00 0.00 80 1017.0
20260502002514 13 98 9.7 16.1 0.00 0.00 0.00 81 1017.2
20260502002015 13 90 3.2 9.7 0.00 0.00 0.00 81 1017.1
20260502001515 13 109 3.2 11.3 0.00 0.00 0.00 81 1017.2
20260502001015 13 85 4.8 16.1 0.00 0.00 0.00 81 1017.3
20260502000515 13 115 3.2 8.0 0.00 0.00 0.00 81 1017.5
20260502000014 13 76 3.2 14.5 0.00 0.00 0.00 81 1017.5
20260501235515 13 112 4.8 20.9 0.00 0.00 0.00 82 1017.6
20260501235014 13 115 1.6 11.3 0.00 0.00 0.00 82 1017.6
20260501234514 14 90 3.2 14.5 0.00 0.00 0.00 82 1017.6
20260501234015 14 113 3.2 11.3 0.00 0.00 0.00 82 1017.6